Total_Precipitation_Accumulation
0.18 0.22 0.26 0.34 0.39 0.42 0.44 0.46 0.49 0.51 0.52 0.52 0.54 0.54 0.53 0.54 0.55 0.60 0.64 0.66 0.67 0.64 0.62 0.62 0.62 0.62 0.63 0.65 0.68 0.71 0.73 0.80 0.81 0.68 0.58 0.56 0.56 0.55 0.56 0.53 0.47 0.44 0.41
0.17 0.20 0.24 0.29 0.33 0.36 0.40 0.39 0.40 0.45 0.45 0.43 0.42 0.42 0.44 0.44 0.46 0.49 0.53 0.56 0.59 0.60 0.60 0.61 0.63 0.64 0.67 0.70 0.71 0.70 0.68 0.67 0.68 0.64 0.55 0.48 0.45 0.43 0.41 0.39 0.36 0.33 0.29
0.16 0.18 0.19 0.20 0.23 0.27 0.33 0.37 0.38 0.44 0.47 0.47 0.42 0.37 0.36 0.37 0.40 0.41 0.43 0.46 0.49 0.52 0.56 0.59 0.62 0.66 0.70 0.70 0.69 0.66 0.63 0.59 0.58 0.58 0.49 0.40 0.36 0.33 0.33 0.30 0.27 0.24 0.22
0.14 0.15 0.16 0.17 0.20 0.22 0.25 0.29 0.33 0.37 0.43 0.43 0.43 0.40 0.37 0.36 0.38 0.40 0.45 0.49 0.53 0.56 0.57 0.59 0.61 0.61 0.61 0.60 0.58 0.56 0.56 0.55 0.55 0.55 0.52 0.44 0.37 0.31 0.30 0.29 0.25 0.21 0.19
0.13 0.15 0.15 0.16 0.17 0.20 0.22 0.25 0.28 0.31 0.36 0.38 0.40 0.40 0.41 0.42 0.45 0.48 0.52 0.56 0.60 0.63 0.65 0.63 0.59 0.56 0.52 0.49 0.47 0.46 0.44 0.48 0.55 0.58 0.54 0.47 0.39 0.35 0.31 0.28 0.28 0.25 0.20
0.14 0.14 0.15 0.17 0.17 0.18 0.21 0.25 0.25 0.28 0.33 0.37 0.43 0.49 0.53 0.58 0.69 0.68 0.63 0.62 0.62 0.60 0.57 0.54 0.52 0.50 0.47 0.48 0.47 0.44 0.46 0.53 0.61 0.61 0.51 0.40 0.28 0.24 0.25 0.30 0.34 0.38 0.30
0.13 0.14 0.15 0.17 0.19 0.19 0.22 0.27 0.33 0.38 0.43 0.48 0.52 0.62 0.66 0.69 0.72 0.64 0.59 0.54 0.55 0.53 0.47 0.42 0.38 0.35 0.35 0.33 0.37 0.42 0.43 0.46 0.47 0.45 0.39 0.28 0.26 0.27 0.38 0.47 0.42 0.39 0.28
0.14 0.18 0.20 0.21 0.28 0.33 0.33 0.36 0.43 0.49 0.53 0.57 0.58 0.62 0.66 0.66 0.64 0.57 0.53 0.45 0.40 0.38 0.35 0.32 0.28 0.26 0.27 0.30 0.36 0.41 0.34 0.28 0.26 0.23 0.25 0.28 0.30 0.29 0.36 0.46 0.42 0.33 0.20
0.17 0.21 0.24 0.26 0.33 0.42 0.44 0.46 0.50 0.54 0.58 0.58 0.56 0.53 0.50 0.48 0.47 0.42 0.40 0.35 0.32 0.29 0.27 0.27 0.28 0.25 0.27 0.39 0.45 0.41 0.29 0.20 0.20 0.24 0.28 0.27 0.24 0.21 0.22 0.37 0.48 0.49 0.33
0.26 0.30 0.35 0.40 0.46 0.49 0.50 0.49 0.47 0.46 0.47 0.44 0.39 0.36 0.33 0.30 0.31 0.31 0.31 0.27 0.27 0.27 0.28 0.29 0.30 0.28 0.35 0.45 0.40 0.36 0.27 0.21 0.23 0.19 0.16 0.13 0.11 0.12 0.17 0.31 0.65 0.91 0.64
0.40 0.41 0.42 0.45 0.48 0.47 0.45 0.42 0.37 0.32 0.29 0.27 0.26 0.24 0.22 0.23 0.24 0.24 0.26 0.26 0.26 0.30 0.31 0.28 0.28 0.38 0.45 0.42 0.33 0.24 0.26 0.32 0.26 0.17 0.13 0.11 0.09 0.09 0.10 0.14 0.35 0.89 1.09
0.40 0.39 0.38 0.36 0.35 0.36 0.35 0.33 0.28 0.24 0.22 0.20 0.20 0.21 0.22 0.23 0.23 0.25 0.29 0.33 0.37 0.33 0.27 0.24 0.30 0.42 0.41 0.31 0.24 0.24 0.31 0.28 0.18 0.17 0.16 0.13 0.11 0.10 0.09 0.10 0.14 0.29 0.60
0.32 0.30 0.27 0.24 0.23 0.23 0.23 0.23 0.21 0.19 0.18 0.19 0.20 0.22 0.24 0.24 0.26 0.28 0.32 0.39 0.43 0.37 0.34 0.39 0.42 0.37 0.29 0.25 0.23 0.24 0.23 0.19 0.21 0.26 0.23 0.17 0.13 0.12 0.12 0.13 0.13 0.17 0.24
0.19 0.19 0.18 0.16 0.16 0.16 0.17 0.19 0.19 0.18 0.17 0.17 0.19 0.22 0.23 0.23 0.24 0.27 0.31 0.36 0.38 0.39 0.42 0.42 0.35 0.28 0.23 0.22 0.23 0.21 0.19 0.20 0.27 0.34 0.29 0.20 0.15 0.15 0.16 0.22 0.31 0.33 0.39
0.13 0.13 0.14 0.15 0.16 0.17 0.18 0.20 0.23 0.23 0.24 0.23 0.21 0.22 0.23 0.22 0.26 0.36 0.39 0.37 0.41 0.45 0.44 0.31 0.23 0.21 0.21 0.19 0.18 0.17 0.18 0.19 0.22 0.25 0.29 0.28 0.21 0.19 0.19 0.27 0.44 0.55 0.60
0.13 0.14 0.14 0.15 0.16 0.17 0.19 0.20 0.24 0.25 0.27 0.27 0.27 0.27 0.24 0.26 0.33 0.38 0.40 0.44 0.46 0.42 0.32 0.24 0.23 0.22 0.21 0.20 0.18 0.18 0.17 0.19 0.24 0.32 0.33 0.34 0.35 0.34 0.32 0.33 0.49 0.64 0.64
0.13 0.15 0.15 0.17 0.18 0.17 0.18 0.20 0.21 0.22 0.24 0.25 0.26 0.28 0.28 0.29 0.30 0.32 0.38 0.40 0.34 0.30 0.23 0.23 0.24 0.24 0.23 0.22 0.23 0.23 0.22 0.19 0.27 0.39 0.44 0.44 0.46 0.42 0.43 0.47 0.54 0.59 0.56
0.14 0.16 0.17 0.17 0.17 0.17 0.17 0.18 0.19 0.20 0.19 0.19 0.20 0.24 0.26 0.28 0.29 0.31 0.34 0.31 0.23 0.22 0.21 0.23 0.23 0.23 0.24 0.27 0.28 0.29 0.29 0.26 0.30 0.39 0.43 0.46 0.52 0.56 0.54 0.53 0.57 0.59 0.55
0.13 0.14 0.15 0.16 0.18 0.19 0.19 0.19 0.19 0.20 0.19 0.19 0.20 0.22 0.26 0.27 0.28 0.28 0.27 0.21 0.20 0.22 0.22 0.22 0.21 0.23 0.26 0.30 0.31 0.33 0.34 0.38 0.41 0.50 0.50 0.52 0.58 0.65 0.59 0.52 0.51 0.42 0.36
0.11 0.15 0.16 0.15 0.15 0.16 0.19 0.20 0.20 0.20 0.21 0.21 0.21 0.22 0.26 0.29 0.26 0.21 0.19 0.20 0.23 0.26 0.25 0.24 0.22 0.23 0.29 0.33 0.35 0.37 0.40 0.40 0.45 0.51 0.54 0.57 0.61 0.67 0.63 0.49 0.38 0.34 0.28
0.10 0.12 0.16 0.15 0.14 0.15 0.16 0.17 0.19 0.20 0.21 0.21 0.20 0.24 0.33 0.30 0.23 0.19 0.20 0.23 0.26 0.27 0.28 0.27 0.25 0.27 0.31 0.35 0.38 0.39 0.42 0.44 0.50 0.60 0.62 0.59 0.59 0.53 0.42 0.38 0.34 0.33 0.33
0.11 0.12 0.12 0.13 0.14 0.16 0.18 0.18 0.19 0.19 0.19 0.19 0.19 0.22 0.29 0.24 0.20 0.21 0.21 0.22 0.23 0.24 0.25 0.28 0.28 0.29 0.40 0.52 0.61 0.63 0.52 0.47 0.51 0.61 0.61 0.52 0.46 0.42 0.38 0.38 0.36 0.36 0.36
0.11 0.13 0.14 0.14 0.16 0.19 0.20 0.18 0.18 0.18 0.18 0.19 0.20 0.20 0.21 0.21 0.22 0.21 0.21 0.21 0.21 0.22 0.23 0.27 0.32 0.30 0.34 0.50 0.66 0.89 0.95 0.77 0.69 0.75 0.80 0.65 0.52 0.48 0.49 0.48 0.41 0.39 0.34
0.11 0.13 0.15 0.16 0.18 0.19 0.19 0.18 0.18 0.18 0.18 0.19 0.19 0.19 0.19 0.20 0.21 0.21 0.20 0.20 0.21 0.21 0.22 0.28 0.33 0.34 0.37 0.51 0.64 0.73 0.85 0.95 1.10 1.11 1.07 1.03 0.79 0.60 0.54 0.49 0.40 0.36 0.34
0.13 0.14 0.14 0.16 0.17 0.18 0.19 0.19 0.18 0.18 0.18 0.18 0.18 0.18 0.18 0.19 0.19 0.18 0.18 0.19 0.20 0.19 0.18 0.22 0.30 0.37 0.42 0.52 0.62 0.68 0.71 0.82 0.99 1.05 0.93 0.83 0.68 0.56 0.53 0.48 0.40 0.35 0.33
0.14 0.15 0.15 0.16 0.17 0.18 0.19 0.19 0.18 0.19 0.20 0.19 0.19 0.19 0.19 0.18 0.17 0.16 0.16 0.18 0.18 0.17 0.16 0.17 0.22 0.32 0.42 0.50 0.50 0.57 0.65 0.63 0.56 0.53 0.62 0.67 0.60 0.50 0.48 0.49 0.41 0.38 0.35